COSMOS 2251 DEB

Satellite information

Favourite Embed

Satellite Type and Status

DEBRISIN ORBIT

Key statistics

Satellite COSMOS 2251 DEB at a glance.

Uptime

11868

Days in orbit

Revolutions

≈ 14.3

Per day

Orbit

LEO

Low Earth Orbit

Inclination

74.0

Latest

Satellite identification and parameters

Extended collection of information and parameters for COSMOS 2251 DEB.

Object identification

Identified? True

Debris? True

Object name: COSMOS 2251 DEB

International designator: 1993-036WJ

Object number (NORAD): 34613

Object ID (CCSDS): 34613

Country: COMMONWEALTH OF INDEPENDENT STATES (CIS)

Current information (Y/N): Y

RCS size: SMALL

Orbital parameters

Period: 100.952 minutes

Inclination: 73.9634 deg

SMA: 7181.842 km

Apoapsis: 882.824 km

Periapsis: 724.589 km

RAAN: 280.0551 deg

Eccentricy: 0.0110163

Argument of periapsis: 112.0795 deg

Mean anomaly: 315.1744 deg

Mean motion: 14.26425303 rev/day

Mean motion (dot): 0.00004638 rev/day2

B* drag term: 0.0018166 1/REarth

Two-line elements (TLE)

Creation date: Dec. 12, 2025, 7:16 a.m.

Reference frame: TEME

Reference center: EARTH

Epoch: Dec. 11, 2025, 9:54 p.m. UTC

TLE line 0: 0 COSMOS 2251 DEB

TLE line 1: 1 34613U 93036WJ 25345.91256105 .00004638 00000-0 18166-2 0 9991

TLE line 2: 2 34613 73.9634 280.0551 0110163 112.0795 315.1744 14.26425303864518

Live tracking on map

Real-time ground track for satellite COSMOS 2251 DEB.

In-orbit conjunctions

A list of the most updated potential collisions computed for object COSMOS 2251 DEB.

Target Orbit TCA Probability of collision Miss distance Type
FENGYUN 1C DEB SSO 2025-09-20 13:20:14 0.0001916994 37.0 (m) DEBRIS
CZ-6A DEB LEO 2025-01-09 20:46:24 0.0001363852 487.0 (m) DEBRIS
COSMOS 1140 LEO 2024-11-15 21:51:03 0.0003422682 296.0 (m) PAYLOAD
ARIANE 1 R/B SSO 2024-11-12 21:51:47 0.0002335553 994.0 (m) ROCKET BODY
CZ-6A DEB LEO 2024-10-19 06:51:26 0.0001372208 364.0 (m) DEBRIS

Associated space launch

Military communications satellite. Destroyed in a collision with Iridium 33.

COSMOS 2251 DEB was lifted into orbit during the mission ‘Kosmos-3M | Strela-2M 51’, on board a Kosmos-3M space rocket.

The launch took place on June 16, 1993, 4:17 a.m. from 132/1 (132L).

For more information about the launch, click the button.

Launch to space Kosmos-3M | Strela-2M 51
Kosmos-3M | Strela-2M 51

Agency: N/A

Status: Launch Successful

Launch date: June 16, 1993, 4:17 a.m. UTC

Rocket: Kosmos-3M

Launch pad: 132/1 (132L)

Location: Plesetsk Cosmodrome, Russian Federation

...

Latest news about this satellite

There are no fresh news available about this satellite. Check back as we update our databases every day.


Newsletter sign-up

Weekly statistics, charts and insights to help you stay on top of the space industry.